Time,TemperatureF,DewpointF,PressureIn,WindDirection,WindDirectionDegrees,WindSpeedMPH,WindSpeedGustMPH,Humidity,HourlyPrecipIn,Conditions,Clouds,dailyrainin,SoftwareType,DateUTC
2013-07-02 00:01:00,76.2,74.7,30.03,WNW,300,0.0,0.0,95,0.00,RA,,0.00,WeatherDisplay:10.37,2013-07-02 04:01:00,
2013-07-02 00:06:00,76.1,74.6,30.03,WNW,300,0.0,0.0,95,0.00,RA,,0.00,WeatherDisplay:10.37,2013-07-02 04:06:00,
2013-07-02 00:11:00,76.2,74.7,30.03,WNW,300,0.0,0.0,95,0.00,CLR,,0.00,WeatherDisplay:10.37,2013-07-02 04:11:00,
2013-07-02 00:16:00,76.2,74.7,30.03,WNW,300,0.0,0.0,95,0.00,CLR,,0.00,WeatherDisplay:10.37,2013-07-02 04:16:00,
2013-07-02 00:21:00,76.2,74.7,30.02,WNW,300,0.0,0.0,95,0.00,CLR,,0.00,WeatherDisplay:10.37,2013-07-02 04:21:00,
2013-07-02 00:26:00,76.3,74.8,30.03,WNW,300,0.0,0.0,95,0.00,CLR,,0.00,WeatherDisplay:10.37,2013-07-02 04:26:00,
2013-07-02 00:31:00,76.3,74.8,30.02,WNW,300,0.0,0.0,95,0.00,CLR,,0.00,WeatherDisplay:10.37,2013-07-02 04:31:00,
2013-07-02 00:36:00,76.2,74.7,30.02,WNW,300,0.0,0.0,95,0.00,CLR,,0.00,WeatherDisplay:10.37,2013-07-02 04:36:00,
2013-07-02 00:41:00,76.3,74.8,30.02,WNW,300,0.0,0.0,95,0.00,CLR,,0.00,WeatherDisplay:10.37,2013-07-02 04:41:00,
2013-07-02 00:46:00,76.2,74.7,30.02,WNW,300,0.0,0.0,95,0.00,CLR,,0.00,WeatherDisplay:10.37,2013-07-02 04:46:00,
2013-07-02 00:51:00,76.5,75.0,30.01,WNW,300,0.0,0.0,95,0.00,CLR,,0.00,WeatherDisplay:10.37,2013-07-02 04:51:00,
2013-07-02 00:56:00,76.7,75.2,30.01,WNW,300,0.0,0.0,95,0.00,CLR,,0.00,WeatherDisplay:10.37,2013-07-02 04:56:00,
2013-07-02 01:01:00,76.6,75.1,30.01,WNW,300,0.0,0.0,95,0.00,CLR,,0.00,WeatherDisplay:10.37,2013-07-02 05:01:00,
2013-07-02 01:06:00,76.5,75.0,30.01,WNW,300,0.0,0.0,95,0.00,CLR,,0.00,WeatherDisplay:10.37,2013-07-02 05:06:00,
2013-07-02 01:11:00,76.5,75.0,30.01,WNW,300,0.0,0.0,95,0.00,CLR,,0.00,WeatherDisplay:10.37,2013-07-02 05:11:00,
2013-07-02 01:16:00,76.5,74.6,30.01,WNW,300,0.0,0.0,94,0.00,CLR,,0.00,WeatherDisplay:10.37,2013-07-02 05:16:00,
2013-07-02 01:21:00,76.4,74.5,30.01,WNW,300,0.0,0.0,94,0.00,CLR,,0.00,WeatherDisplay:10.37,2013-07-02 05:21:00,
2013-07-02 01:26:00,76.4,74.5,30.01,WNW,300,0.0,0.0,94,0.00,CLR,,0.00,WeatherDisplay:10.37,2013-07-02 05:26:00,
2013-07-02 01:32:00,76.4,74.5,30.01,WNW,300,0.0,0.0,94,0.00,CLR,,0.00,WeatherDisplay:10.37,2013-07-02 05:32:00,
2013-07-02 01:37:00,76.6,75.1,30.01,WNW,300,0.0,0.0,95,0.00,CLR,,0.00,WeatherDisplay:10.37,2013-07-02 05:37:00,
2013-07-02 01:42:00,76.9,75.4,30.01,WNW,300,0.0,0.0,95,0.00,CLR,,0.00,WeatherDisplay:10.37,2013-07-02 05:42:00,
2013-07-02 01:47:00,77.1,75.6,30.00,WNW,300,0.0,0.0,95,0.00,CLR,,0.00,WeatherDisplay:10.37,2013-07-02 05:47:00,
2013-07-02 01:52:00,77.0,75.5,30.00,WNW,300,0.0,0.0,95,0.00,CLR,,0.00,WeatherDisplay:10.37,2013-07-02 05:52:00,
2013-07-02 01:57:00,77.1,75.6,30.00,WNW,300,0.0,0.0,95,0.00,CLR,,0.00,WeatherDisplay:10.37,2013-07-02 05:57:00,
2013-07-02 02:02:00,77.1,75.6,29.99,WNW,300,0.0,0.0,95,0.00,CLR,,0.00,WeatherDisplay:10.37,2013-07-02 06:02:00,
2013-07-02 02:07:00,77.3,75.8,30.00,WNW,300,0.0,0.0,95,0.00,CLR,,0.00,WeatherDisplay:10.37,2013-07-02 06:07:00,
2013-07-02 02:12:00,77.4,75.9,30.00,WNW,300,0.2,1.2,95,0.00,CLR,,0.00,WeatherDisplay:10.37,2013-07-02 06:12:00,
2013-07-02 02:17:00,77.3,75.8,29.99,WNW,300,0.0,0.0,95,0.00,CLR,,0.00,WeatherDisplay:10.37,2013-07-02 06:17:00,
2013-07-02 02:22:00,77.3,75.8,29.99,WNW,300,1.1,2.3,95,0.00,CLR,,0.00,WeatherDisplay:10.37,2013-07-02 06:22:00,
2013-07-02 02:27:00,77.3,75.8,29.99,ESE,104,8.1,11.5,95,0.00,CLR,,0.00,WeatherDisplay:10.37,2013-07-02 06:27:00,
2013-07-02 02:32:00,77.1,74.9,29.99,ESE,104,5.8,6.9,93,0.00,CLR,,0.00,WeatherDisplay:10.37,2013-07-02 06:32:00,
2013-07-02 02:37:00,76.7,73.9,29.99,SE,126,2.8,3.5,91,0.00,CLR,,0.00,WeatherDisplay:10.37,2013-07-02 06:37:00,
2013-07-02 02:42:00,76.5,74.0,29.99,SE,126,1.2,3.5,92,0.00,CLR,,0.00,WeatherDisplay:10.37,2013-07-02 06:42:00,
2013-07-02 02:47:00,76.4,73.9,29.98,SE,126,0.0,0.0,92,0.00,CLR,,0.00,WeatherDisplay:10.37,2013-07-02 06:47:00,
2013-07-02 02:52:00,76.4,74.2,29.98,SE,126,0.3,1.2,93,0.00,CLR,,0.00,WeatherDisplay:10.37,2013-07-02 06:52:00,
2013-07-02 02:57:00,76.4,74.2,29.98,SE,126,0.0,0.0,93,0.00,CLR,,0.00,WeatherDisplay:10.37,2013-07-02 06:57:00,
2013-07-02 03:02:00,76.4,74.5,29.98,SE,126,0.0,0.0,94,0.00,CLR,,0.00,WeatherDisplay:10.37,2013-07-02 07:02:00,
2013-07-02 03:07:00,76.4,74.5,29.98,SE,126,0.0,2.3,94,0.00,CLR,,0.00,WeatherDisplay:10.37,2013-07-02 07:07:00,
2013-07-02 03:12:00,76.4,74.5,29.98,SE,126,0.4,1.2,94,0.00,CLR,,0.00,WeatherDisplay:10.37,2013-07-02 07:12:00,
2013-07-02 03:17:00,76.4,74.5,29.98,SE,126,1.7,2.3,94,0.00,CLR,,0.00,WeatherDisplay:10.37,2013-07-02 07:17:00,
2013-07-02 03:22:00,76.4,74.2,29.98,SE,126,1.7,3.5,93,0.00,CLR,,0.00,WeatherDisplay:10.37,2013-07-02 07:22:00,
2013-07-02 03:27:00,76.5,74.0,29.98,SE,126,1.1,2.3,92,0.00,CLR,,0.00,WeatherDisplay:10.37,2013-07-02 07:27:00,
2013-07-02 03:32:00,76.5,74.0,29.98,SE,126,0.3,2.3,92,0.00,CLR,,0.00,WeatherDisplay:10.37,2013-07-02 07:32:00,
2013-07-02 03:37:00,76.5,73.7,29.98,SE,126,0.3,1.2,91,0.00,CLR,,0.00,WeatherDisplay:10.37,2013-07-02 07:37:00,
2013-07-02 03:42:00,76.6,73.8,29.98,SE,126,0.1,1.2,91,0.00,CLR,,0.00,WeatherDisplay:10.37,2013-07-02 07:42:00,
2013-07-02 03:47:00,76.7,74.2,29.98,SE,126,0.1,1.0,92,0.00,CLR,,0.00,WeatherDisplay:10.37,2013-07-02 07:47:00,
2013-07-02 03:52:00,76.6,73.8,29.97,SE,126,0.1,2.3,91,0.00,CLR,,0.00,WeatherDisplay:10.37,2013-07-02 07:52:00,
2013-07-02 03:57:00,76.6,73.8,29.98,SE,126,0.1,1.2,91,0.00,CLR,,0.00,WeatherDisplay:10.37,2013-07-02 07:57:00,
2013-07-02 04:02:00,76.5,73.7,29.98,SE,126,0.0,1.2,91,0.00,CLR,,0.00,WeatherDisplay:10.37,2013-07-02 08:02:00,
2013-07-02 04:07:00,76.6,73.8,29.97,SE,126,0.0,0.0,91,0.00,CLR,,0.00,WeatherDisplay:10.37,2013-07-02 08:07:00,
2013-07-02 04:12:00,76.6,73.8,29.97,SE,126,0.0,0.0,91,0.00,CLR,,0.00,WeatherDisplay:10.37,2013-07-02 08:12:00,
2013-07-02 04:17:00,76.7,73.9,29.97,SE,126,0.4,1.2,91,0.00,CLR,,0.00,WeatherDisplay:10.37,2013-07-02 08:17:00,
2013-07-02 04:22:00,76.7,73.9,29.97,SE,126,0.3,1.2,91,0.00,CLR,,0.00,WeatherDisplay:10.37,2013-07-02 08:22:00,
2013-07-02 04:27:00,76.9,74.4,29.97,SE,126,0.0,0.0,92,0.00,CLR,,0.00,WeatherDisplay:10.37,2013-07-02 08:27:00,
2013-07-02 04:32:00,76.9,74.7,29.97,SE,126,0.0,0.0,93,0.00,CLR,,0.00,WeatherDisplay:10.37,2013-07-02 08:32:00,
2013-07-02 04:37:00,77.0,74.8,29.97,SE,126,0.0,0.0,93,0.00,CLR,,0.00,WeatherDisplay:10.37,2013-07-02 08:37:00,
2013-07-02 04:42:00,77.0,74.8,29.97,SE,126,0.0,0.0,93,0.00,CLR,,0.00,WeatherDisplay:10.37,2013-07-02 08:42:00,
2013-07-02 04:47:00,76.9,74.7,29.97,SE,126,0.0,0.0,93,0.00,CLR,,0.00,WeatherDisplay:10.37,2013-07-02 08:47:00,
2013-07-02 04:53:00,77.0,75.1,29.97,SE,126,0.0,0.0,94,0.00,CLR,,0.00,WeatherDisplay:10.37,2013-07-02 08:53:00,
2013-07-02 04:58:00,77.0,75.1,29.97,SE,126,0.1,1.2,94,0.00,CLR,,0.00,WeatherDisplay:10.37,2013-07-02 08:58:00,
2013-07-02 05:03:00,77.1,75.2,29.97,SE,126,0.0,0.0,94,0.00,CLR,,0.00,WeatherDisplay:10.37,2013-07-02 09:03:00,
2013-07-02 05:08:00,77.2,75.7,29.97,SE,126,0.0,1.2,95,0.00,CLR,,0.00,WeatherDisplay:10.37,2013-07-02 09:08:00,
2013-07-02 05:13:00,77.3,75.8,29.97,SE,126,0.1,0.0,95,0.00,CLR,,0.00,WeatherDisplay:10.37,2013-07-02 09:13:00,
2013-07-02 05:18:00,77.3,75.8,29.97,SE,126,0.6,0.0,95,0.00,CLR,,0.00,WeatherDisplay:10.37,2013-07-02 09:18:00,
2013-07-02 05:23:00,77.5,76.0,29.97,SE,126,0.6,2.3,95,0.00,CLR,,0.00,WeatherDisplay:10.37,2013-07-02 09:23:00,
2013-07-02 05:28:00,77.7,76.2,29.97,SE,126,0.5,3.5,95,0.00,CLR,,0.00,WeatherDisplay:10.37,2013-07-02 09:28:00,
2013-07-02 05:33:00,77.9,76.4,29.98,SE,126,0.5,1.2,95,0.00,CLR,,0.00,WeatherDisplay:10.37,2013-07-02 09:33:00,
2013-07-02 05:38:00,78.2,77.0,29.98,SE,126,0.7,2.3,96,0.00,CLR,,0.00,WeatherDisplay:10.37,2013-07-02 09:38:00,
2013-07-02 05:43:00,78.4,76.8,29.98,SE,126,2.9,4.6,95,0.00,CLR,,0.00,WeatherDisplay:10.37,2013-07-02 09:43:00,
2013-07-02 05:48:00,78.6,77.0,29.98,SE,126,1.5,4.6,95,0.00,CLR,,0.00,WeatherDisplay:10.37,2013-07-02 09:48:00,
2013-07-02 05:53:00,78.9,77.0,29.99,SE,134,7.8,12.7,94,0.00,CLR,,0.00,WeatherDisplay:10.37,2013-07-02 09:53:00,
2013-07-02 05:58:00,79.1,76.6,29.98,SE,124,5.4,10.4,92,0.00,CLR,,0.00,WeatherDisplay:10.37,2013-07-02 09:58:00,
2013-07-02 06:03:00,78.6,75.1,29.98,ESE,105,5.9,8.1,89,0.01,RA,,0.01,WeatherDisplay:10.37,2013-07-02 10:03:00,
2013-07-02 06:08:00,77.4,73.6,29.98,SE,141,2.4,3.5,88,0.01,RA,,0.01,WeatherDisplay:10.37,2013-07-02 10:08:00,
2013-07-02 06:13:00,76.8,73.6,29.99,ESE,120,2.6,4.6,90,0.01,,,0.01,WeatherDisplay:10.37,2013-07-02 10:13:00,
2013-07-02 06:18:00,76.7,74.2,29.99,South,185,1.7,3.5,92,0.01,CLR,,0.01,WeatherDisplay:10.37,2013-07-02 10:18:00,
2013-07-02 06:23:00,76.9,74.7,29.99,ESE,103,1.3,3.5,93,0.01,CLR,,0.01,WeatherDisplay:10.37,2013-07-02 10:23:00,
2013-07-02 06:28:00,77.2,75.0,29.99,ESE,104,0.3,1.2,93,0.01,CLR,,0.01,WeatherDisplay:10.37,2013-07-02 10:28:00,
2013-07-02 06:33:00,77.4,75.5,29.99,ESE,104,0.7,2.3,94,0.01,CLR,,0.01,WeatherDisplay:10.37,2013-07-02 10:33:00,
2013-07-02 06:38:00,77.6,75.7,29.99,ESE,104,0.3,1.2,94,0.01,CLR,,0.01,WeatherDisplay:10.37,2013-07-02 10:38:00,
2013-07-02 06:43:00,77.7,75.8,30.00,SE,144,1.6,3.5,94,0.01,CLR,,0.01,WeatherDisplay:10.37,2013-07-02 10:43:00,
2013-07-02 06:48:00,77.8,75.9,30.00,SE,144,0.5,1.2,94,0.01,CLR,,0.01,WeatherDisplay:10.37,2013-07-02 10:48:00,
2013-07-02 06:53:00,78.0,76.5,30.00,SE,144,0.2,1.2,95,0.01,CLR,,0.01,WeatherDisplay:10.37,2013-07-02 10:53:00,
2013-07-02 06:58:00,78.2,76.6,30.00,SE,144,0.0,0.0,95,0.01,CLR,,0.01,WeatherDisplay:10.37,2013-07-02 10:58:00,
2013-07-02 07:03:00,78.4,76.8,30.00,SE,144,0.1,0.0,95,0.00,CLR,,0.01,WeatherDisplay:10.37,2013-07-02 11:03:00,
2013-07-02 07:08:00,78.6,77.0,30.00,SE,144,0.0,0.0,95,0.00,CLR,,0.01,WeatherDisplay:10.37,2013-07-02 11:08:00,
2013-07-02 07:13:00,78.7,77.1,30.01,SE,144,0.0,0.0,95,0.00,CLR,,0.01,WeatherDisplay:10.37,2013-07-02 11:13:00,
2013-07-02 07:18:00,78.7,77.1,30.01,SE,144,0.0,0.0,95,0.00,CLR,,0.01,WeatherDisplay:10.37,2013-07-02 11:18:00,
2013-07-02 07:23:00,78.9,77.3,30.01,SE,144,0.0,0.0,95,0.00,CLR,,0.01,WeatherDisplay:10.37,2013-07-02 11:23:00,
2013-07-02 07:28:00,79.2,77.6,30.01,SE,144,0.0,0.0,95,0.00,CLR,,0.01,WeatherDisplay:10.37,2013-07-02 11:28:00,
2013-07-02 07:33:00,79.3,77.7,30.01,SE,144,0.3,1.2,95,0.00,CLR,,0.01,WeatherDisplay:10.37,2013-07-02 11:33:00,
2013-07-02 07:38:00,79.4,77.8,30.01,SE,144,0.5,1.2,95,0.00,CLR,,0.01,WeatherDisplay:10.37,2013-07-02 11:38:00,
2013-07-02 07:43:00,79.5,77.9,30.01,SE,144,0.6,2.3,95,0.00,CLR,,0.01,WeatherDisplay:10.37,2013-07-02 11:43:00,
2013-07-02 07:48:00,79.7,77.8,30.01,SE,136,2.3,3.5,94,0.00,CLR,,0.01,WeatherDisplay:10.37,2013-07-02 11:48:00,
2013-07-02 07:53:00,80.0,78.1,30.01,SE,136,1.4,3.5,94,0.00,CLR,,0.01,WeatherDisplay:10.37,2013-07-02 11:53:00,
2013-07-02 07:58:00,80.2,78.0,30.01,ESE,123,2.9,3.5,93,0.00,CLR,,0.01,WeatherDisplay:10.37,2013-07-02 11:58:00,
2013-07-02 08:03:00,80.5,78.3,30.02,ESE,119,2.4,3.5,93,0.00,CLR,,0.01,WeatherDisplay:10.37,2013-07-02 12:03:00,
2013-07-02 08:08:00,80.7,78.5,30.02,SE,145,3.0,4.6,93,0.00,CLR,,0.01,WeatherDisplay:10.37,2013-07-02 12:08:00,
2013-07-02 08:13:00,80.8,78.3,30.02,SSE,148,2.9,4.6,92,0.00,CLR,,0.01,WeatherDisplay:10.37,2013-07-02 12:13:00,
2013-07-02 08:18:00,80.8,78.3,30.02,SE,125,3.6,5.8,92,0.00,CLR,,0.01,WeatherDisplay:10.37,2013-07-02 12:18:00,
2013-07-02 08:23:00,80.9,78.4,30.02,SE,142,3.4,6.9,92,0.00,CLR,,0.01,WeatherDisplay:10.37,2013-07-02 12:23:00,
2013-07-02 08:28:00,81.0,78.5,30.02,ESE,107,4.8,6.9,92,0.00,CLR,,0.01,WeatherDisplay:10.37,2013-07-02 12:28:00,
2013-07-02 08:33:00,81.1,78.2,30.03,ESE,113,4.8,9.2,91,0.00,CLR,,0.01,WeatherDisplay:10.37,2013-07-02 12:33:00,
2013-07-02 08:38:00,81.2,78.7,30.03,SE,144,2.9,3.5,92,0.00,CLR,,0.01,WeatherDisplay:10.37,2013-07-02 12:38:00,
2013-07-02 08:43:00,81.3,78.4,30.03,SSE,159,3.8,5.8,91,0.00,CLR,,0.01,WeatherDisplay:10.37,2013-07-02 12:43:00,
2013-07-02 08:48:00,81.5,78.6,30.03,SE,134,2.5,10.4,91,0.00,CLR,,0.01,WeatherDisplay:10.37,2013-07-02 12:48:00,
2013-07-02 08:53:00,81.6,78.7,30.03,ESE,123,2.3,3.5,91,0.00,CLR,,0.01,WeatherDisplay:10.37,2013-07-02 12:53:00,
2013-07-02 08:58:00,81.6,78.4,30.03,SE,128,3.8,5.8,90,0.00,CLR,,0.01,WeatherDisplay:10.37,2013-07-02 12:58:00,
2013-07-02 09:03:00,81.6,78.4,30.03,ESE,109,2.2,3.5,90,0.01,RA,,0.02,WeatherDisplay:10.37,2013-07-02 13:03:00,
2013-07-02 09:08:00,81.5,78.3,30.03,ESE,123,2.4,5.8,90,0.01,RA,,0.02,WeatherDisplay:10.37,2013-07-02 13:08:00,
2013-07-02 09:13:00,81.3,78.4,30.03,SE,144,4.0,6.0,91,0.01,,,0.02,WeatherDisplay:10.37,2013-07-02 13:13:00,
2013-07-02 09:18:00,81.2,78.3,30.03,ESE,116,3.7,4.6,91,0.01,CLR,,0.02,WeatherDisplay:10.37,2013-07-02 13:18:00,
2013-07-02 09:23:00,81.2,78.3,30.03,SE,128,3.1,5.0,91,0.01,CLR,,0.02,WeatherDisplay:10.37,2013-07-02 13:23:00,
2013-07-02 09:29:00,81.2,78.3,30.03,ESE,119,2.4,6.9,91,0.01,CLR,,0.02,WeatherDisplay:10.37,2013-07-02 13:29:00,
2013-07-02 09:34:00,81.3,78.4,30.04,ESE,119,2.0,3.5,91,0.02,RA,,0.03,WeatherDisplay:10.37,2013-07-02 13:34:00,
2013-07-02 09:39:00,81.4,78.5,30.04,SE,133,2.3,5.8,91,0.02,RA,,0.03,WeatherDisplay:10.37,2013-07-02 13:39:00,
2013-07-02 09:44:00,81.4,78.5,30.04,SE,144,3.4,8.1,91,0.02,CLR,,0.03,WeatherDisplay:10.37,2013-07-02 13:44:00,
2013-07-02 09:49:00,81.6,78.7,30.04,East,97,3.8,5.8,91,0.02,CLR,,0.03,WeatherDisplay:10.37,2013-07-02 13:49:00,
2013-07-02 09:54:00,81.9,78.7,30.04,ESE,123,4.9,5.8,90,0.02,CLR,,0.03,WeatherDisplay:10.37,2013-07-02 13:54:00,
2013-07-02 09:59:00,82.3,79.1,30.04,SE,140,4.3,4.3,90,0.02,CLR,,0.03,WeatherDisplay:10.37,2013-07-02 13:59:00,
2013-07-02 10:04:00,82.7,79.1,30.04,ESE,109,5.1,8.1,89,0.01,CLR,,0.03,WeatherDisplay:10.37,2013-07-02 14:04:00,
2013-07-02 10:09:00,83.0,79.1,30.05,SE,137,6.0,9.2,88,0.01,CLR,,0.03,WeatherDisplay:10.37,2013-07-02 14:09:00,
2013-07-02 10:14:00,83.1,78.8,30.05,SE,124,8.1,11.5,87,0.01,CLR,,0.03,WeatherDisplay:10.37,2013-07-02 14:14:00,
2013-07-02 10:19:00,83.2,78.6,30.05,SE,139,7.4,11.5,86,0.01,CLR,,0.03,WeatherDisplay:10.37,2013-07-02 14:19:00,
2013-07-02 10:24:00,83.1,78.1,30.04,SE,142,5.0,9.2,85,0.01,CLR,,0.03,WeatherDisplay:10.37,2013-07-02 14:24:00,
2013-07-02 10:29:00,83.2,78.6,30.04,ESE,111,3.9,8.1,86,0.01,CLR,,0.03,WeatherDisplay:10.37,2013-07-02 14:29:00,
2013-07-02 10:34:00,83.4,78.4,30.04,ESE,116,4.1,6.9,85,0.00,CLR,,0.03,WeatherDisplay:10.37,2013-07-02 14:34:00,
2013-07-02 10:39:00,84.0,78.6,30.04,ESE,103,7.1,11.5,84,0.00,CLR,,0.03,WeatherDisplay:10.37,2013-07-02 14:39:00,
2013-07-02 10:44:00,84.9,78.8,30.04,SSE,155,6.5,9.2,82,0.00,CLR,,0.03,WeatherDisplay:10.37,2013-07-02 14:44:00,
2013-07-02 10:49:00,85.4,78.9,30.04,ESE,105,7.1,10.4,81,0.00,CLR,,0.03,WeatherDisplay:10.37,2013-07-02 14:49:00,
2013-07-02 10:54:00,85.5,78.6,30.04,ESE,109,5.9,9.2,80,0.00,CLR,,0.03,WeatherDisplay:10.37,2013-07-02 14:54:00,
2013-07-02 10:59:00,85.7,78.4,30.04,ESE,113,10.9,17.3,79,0.00,CLR,,0.03,WeatherDisplay:10.37,2013-07-02 14:59:00,
2013-07-02 11:04:00,85.6,78.3,30.03,ESE,119,7.6,11.5,79,0.00,CLR,,0.03,WeatherDisplay:10.37,2013-07-02 15:04:00,
2013-07-02 11:09:00,85.6,78.3,30.04,SE,128,3.8,8.1,79,0.00,CLR,,0.03,WeatherDisplay:10.37,2013-07-02 15:09:00,
2013-07-02 11:14:00,85.3,78.4,30.04,SE,125,8.9,12.7,80,0.00,CLR,,0.03,WeatherDisplay:10.37,2013-07-02 15:14:00,
2013-07-02 11:19:00,84.7,77.8,30.04,SE,138,9.2,15.0,80,0.00,CLR,,0.03,WeatherDisplay:10.37,2013-07-02 15:19:00,
2013-07-02 11:24:00,84.3,78.2,30.04,SE,130,5.5,8.1,82,0.00,CLR,,0.03,WeatherDisplay:10.37,2013-07-02 15:24:00,
2013-07-02 11:29:00,84.1,77.6,30.05,ESE,105,6.4,10.4,81,0.00,CLR,,0.03,WeatherDisplay:10.37,2013-07-02 15:29:00,
2013-07-02 11:34:00,84.0,77.5,30.05,SE,125,7.0,9.2,81,0.00,CLR,,0.03,WeatherDisplay:10.37,2013-07-02 15:34:00,
2013-07-02 11:39:00,83.4,75.8,30.05,SSE,159,5.5,13.8,78,0.00,CLR,,0.03,WeatherDisplay:10.37,2013-07-02 15:39:00,
2013-07-02 11:44:00,82.0,74.5,30.05,SSW,207,4.9,8.1,78,0.00,CLR,,0.03,WeatherDisplay:10.37,2013-07-02 15:44:00,
2013-07-02 11:49:00,81.1,74.3,30.05,South,189,5.1,8.1,80,0.00,CLR,,0.03,WeatherDisplay:10.37,2013-07-02 15:49:00,
2013-07-02 11:54:00,80.6,74.2,30.06,SW,216,4.5,10.4,81,0.00,CLR,,0.03,WeatherDisplay:10.37,2013-07-02 15:54:00,
2013-07-02 11:59:00,80.3,74.7,30.06,South,190,5.5,8.1,83,0.00,CLR,,0.03,WeatherDisplay:10.37,2013-07-02 15:59:00,
2013-07-02 12:04:00,79.9,74.6,30.06,South,172,1.8,2.3,84,0.00,CLR,,0.03,WeatherDisplay:10.37,2013-07-02 16:04:00,
2013-07-02 12:09:00,79.5,74.9,30.06,SW,219,1.3,3.5,86,0.00,CLR,,0.03,WeatherDisplay:10.37,2013-07-02 16:09:00,
2013-07-02 12:14:00,79.0,74.5,30.07,SSW,212,3.9,7.0,86,0.00,CLR,,0.03,WeatherDisplay:10.37,2013-07-02 16:14:00,
2013-07-02 12:19:00,78.5,74.3,30.06,South,191,2.0,4.6,87,0.00,CLR,,0.03,WeatherDisplay:10.37,2013-07-02 16:19:00,
2013-07-02 12:24:00,78.3,74.8,30.06,SSW,204,2.3,3.5,89,0.01,RA,,0.04,WeatherDisplay:10.37,2013-07-02 16:24:00,
2013-07-02 12:29:00,78.0,74.5,30.06,South,187,2.2,4.6,89,0.01,RA,,0.05,WeatherDisplay:10.37,2013-07-02 16:29:00,
2013-07-02 12:34:00,77.8,75.0,30.06,South,188,0.3,1.2,91,0.03,RA,,0.06,WeatherDisplay:10.37,2013-07-02 16:34:00,
2013-07-02 12:39:00,77.8,75.3,30.05,South,188,1.2,2.3,92,0.04,RA,,0.07,WeatherDisplay:10.37,2013-07-02 16:39:00,
2013-07-02 12:44:00,77.8,75.3,30.06,South,188,0.0,2.3,92,0.04,RA,,0.07,WeatherDisplay:10.37,2013-07-02 16:44:00,
2013-07-02 12:49:00,78.0,75.8,30.06,South,188,0.0,0.0,93,0.05,RA,,0.08,WeatherDisplay:10.37,2013-07-02 16:49:00,
2013-07-02 12:54:00,78.1,75.9,30.06,South,188,0.0,0.0,93,0.05,RA,,0.08,WeatherDisplay:10.37,2013-07-02 16:54:00,
2013-07-02 12:59:00,78.4,76.5,30.06,South,188,0.2,0.0,94,0.05,CLR,,0.08,WeatherDisplay:10.37,2013-07-02 16:59:00,
2013-07-02 13:04:00,78.5,76.6,30.06,South,188,0.0,0.0,94,0.05,CLR,,0.08,WeatherDisplay:10.37,2013-07-02 17:04:00,
2013-07-02 13:09:00,78.7,76.8,30.06,South,188,0.0,0.0,94,0.05,CLR,,0.08,WeatherDisplay:10.37,2013-07-02 17:09:00,
2013-07-02 13:14:00,79.0,77.1,30.06,South,188,0.0,1.0,94,0.05,CLR,,0.08,WeatherDisplay:10.37,2013-07-02 17:14:00,
2013-07-02 13:19:00,79.4,77.5,30.06,South,188,1.5,3.0,94,0.05,CLR,,0.08,WeatherDisplay:10.37,2013-07-02 17:19:00,
2013-07-02 13:20:00,79.4,77.5,30.06,South,188,2.0,3.5,94,0.05,CLR,,0.08,WeatherDisplay:10.37,2013-07-02 17:20:00,
2013-07-02 13:25:00,79.7,77.8,30.06,SSE,148,1.5,3.5,94,0.04,CLR,,0.08,WeatherDisplay:10.37,2013-07-02 17:25:00,
2013-07-02 13:30:00,79.9,77.7,30.06,SE,141,0.2,3.5,93,0.03,CLR,,0.08,WeatherDisplay:10.37,2013-07-02 17:30:00,
2013-07-02 13:35:00,80.3,78.1,30.06,SE,146,1.2,2.3,93,0.02,CLR,,0.08,WeatherDisplay:10.37,2013-07-02 17:35:00,
2013-07-02 13:40:00,80.5,78.0,30.05,SE,129,1.5,2.3,92,0.01,CLR,,0.08,WeatherDisplay:10.37,2013-07-02 17:40:00,
2013-07-02 13:45:00,80.9,78.4,30.05,SSE,161,0.4,1.2,92,0.01,CLR,,0.08,WeatherDisplay:10.37,2013-07-02 17:45:00,
2013-07-02 13:50:00,81.3,78.1,30.05,East,91,2.0,3.5,90,0.00,CLR,,0.08,WeatherDisplay:10.37,2013-07-02 17:50:00,
2013-07-02 13:55:00,81.9,78.7,30.04,SE,127,4.0,6.9,90,0.00,CLR,,0.08,WeatherDisplay:10.37,2013-07-02 17:55:00,
2013-07-02 14:00:00,82.2,78.6,30.04,SSE,167,3.6,5.8,89,0.00,CLR,,0.08,WeatherDisplay:10.37,2013-07-02 18:00:00,
2013-07-02 14:05:00,82.8,79.2,30.04,SSE,153,0.9,3.5,89,0.00,CLR,,0.08,WeatherDisplay:10.37,2013-07-02 18:05:00,
2013-07-02 14:10:00,82.9,79.0,30.04,SE,138,4.6,6.9,88,0.00,CLR,,0.08,WeatherDisplay:10.37,2013-07-02 18:10:00,
2013-07-02 14:15:00,82.2,77.2,30.03,ESE,119,2.7,4.6,85,0.00,CLR,,0.08,WeatherDisplay:10.37,2013-07-02 18:15:00,
2013-07-02 14:20:00,81.9,77.6,30.03,SSE,151,3.0,4.6,87,0.00,CLR,,0.08,WeatherDisplay:10.37,2013-07-02 18:20:00,
2013-07-02 14:25:00,82.1,78.2,30.03,SE,142,4.0,4.0,88,0.00,CLR,,0.08,WeatherDisplay:10.37,2013-07-02 18:25:00,
2013-07-02 14:30:00,82.6,79.0,30.03,East,95,1.3,3.5,89,0.00,CLR,,0.08,WeatherDisplay:10.37,2013-07-02 18:30:00,
2013-07-02 14:35:00,82.8,78.9,30.03,East,86,1.4,3.5,88,0.00,CLR,,0.08,WeatherDisplay:10.37,2013-07-02 18:35:00,
2013-07-02 14:40:00,83.2,79.3,30.03,SSE,158,3.8,4.6,88,0.00,CLR,,0.08,WeatherDisplay:10.37,2013-07-02 18:40:00,
2013-07-02 14:45:00,83.8,79.2,30.02,SE,136,3.4,3.5,86,0.00,CLR,,0.08,WeatherDisplay:10.37,2013-07-02 18:45:00,
2013-07-02 14:50:00,84.1,78.7,30.03,SE,134,5.7,8.0,84,0.00,CLR,,0.08,WeatherDisplay:10.37,2013-07-02 18:50:00,
2013-07-02 14:55:00,84.1,77.6,30.03,SE,134,8.3,12.7,81,0.00,CLR,,0.08,WeatherDisplay:10.37,2013-07-02 18:55:00,
2013-07-02 15:00:00,84.0,78.3,30.03,SE,131,4.3,6.0,83,0.00,CLR,,0.08,WeatherDisplay:10.37,2013-07-02 19:00:00,
2013-07-02 15:05:00,83.9,77.4,30.03,ESE,113,5.9,8.1,81,0.00,CLR,,0.08,WeatherDisplay:10.37,2013-07-02 19:05:00,
2013-07-02 15:10:00,84.1,78.0,30.03,SE,126,4.2,6.9,82,0.00,CLR,,0.08,WeatherDisplay:10.37,2013-07-02 19:10:00,
2013-07-02 15:15:00,84.1,77.6,30.03,ENE,66,7.8,11.5,81,0.00,CLR,,0.08,WeatherDisplay:10.37,2013-07-02 19:15:00,
2013-07-02 15:20:00,84.2,77.7,30.03,East,94,7.8,10.4,81,0.00,CLR,,0.08,WeatherDisplay:10.37,2013-07-02 19:20:00,
2013-07-02 15:25:00,84.5,78.0,30.02,SE,138,4.5,5.8,81,0.00,CLR,,0.08,WeatherDisplay:10.37,2013-07-02 19:25:00,
2013-07-02 15:30:00,84.9,77.7,30.02,SSW,194,5.1,8.1,79,0.00,CLR,,0.08,WeatherDisplay:10.37,2013-07-02 19:30:00,
2013-07-02 15:35:00,85.3,78.4,30.02,SE,142,3.4,5.8,80,0.00,CLR,,0.08,WeatherDisplay:10.37,2013-07-02 19:35:00,
2013-07-02 15:41:00,85.7,78.0,30.02,SE,137,4.9,5.8,78,0.00,CLR,,0.08,WeatherDisplay:10.37,2013-07-02 19:41:00,
2013-07-02 15:46:00,85.7,78.4,30.02,SE,135,6.1,8.1,79,0.00,CLR,,0.08,WeatherDisplay:10.37,2013-07-02 19:46:00,
2013-07-02 15:51:00,85.4,78.1,30.02,SE,128,4.0,4.6,79,0.00,CLR,,0.08,WeatherDisplay:10.37,2013-07-02 19:51:00,
2013-07-02 15:56:00,85.1,77.8,30.02,SSE,161,7.2,9.2,79,0.00,CLR,,0.08,WeatherDisplay:10.37,2013-07-02 19:56:00,
2013-07-02 16:01:00,84.8,77.6,30.02,SE,146,6.6,11.5,79,0.00,CLR,,0.08,WeatherDisplay:10.37,2013-07-02 20:01:00,
2013-07-02 16:06:00,84.6,77.4,30.02,ESE,113,4.2,8.1,79,0.00,CLR,,0.08,WeatherDisplay:10.37,2013-07-02 20:06:00,
2013-07-02 16:11:00,84.3,77.5,30.02,East,94,7.1,10.4,80,0.00,CLR,,0.08,WeatherDisplay:10.37,2013-07-02 20:11:00,
2013-07-02 16:16:00,84.0,77.2,30.02,ESE,114,6.6,6.9,80,0.00,CLR,,0.08,WeatherDisplay:10.37,2013-07-02 20:16:00,
2013-07-02 16:21:00,83.7,76.9,30.02,East,99,5.2,8.1,80,0.00,CLR,,0.08,WeatherDisplay:10.37,2013-07-02 20:21:00,
2013-07-02 16:26:00,83.6,76.4,30.01,ESE,112,5.0,8.1,79,0.00,CLR,,0.08,WeatherDisplay:10.37,2013-07-02 20:26:00,
2013-07-02 16:31:00,83.5,76.7,30.01,ESE,103,5.2,8.1,80,0.00,CLR,,0.08,WeatherDisplay:10.37,2013-07-02 20:31:00,
2013-07-02 16:36:00,83.4,76.6,30.02,SSE,149,3.8,6.9,80,0.00,CLR,,0.08,WeatherDisplay:10.37,2013-07-02 20:36:00,
2013-07-02 16:41:00,83.4,76.6,30.01,SE,144,4.8,6.9,80,0.00,CLR,,0.08,WeatherDisplay:10.37,2013-07-02 20:41:00,
2013-07-02 16:46:00,83.3,76.1,30.01,SE,132,5.3,9.2,79,0.00,CLR,,0.08,WeatherDisplay:10.37,2013-07-02 20:46:00,
2013-07-02 16:51:00,83.3,76.5,30.02,SSE,165,2.3,3.5,80,0.00,CLR,,0.08,WeatherDisplay:10.37,2013-07-02 20:51:00,
2013-07-02 16:56:00,83.3,75.7,30.02,South,169,1.2,3.5,78,0.00,CLR,,0.08,WeatherDisplay:10.37,2013-07-02 20:56:00,
2013-07-02 17:01:00,83.4,76.2,30.02,SE,127,4.2,5.8,79,0.00,CLR,,0.08,WeatherDisplay:10.37,2013-07-02 21:01:00,
2013-07-02 17:06:00,83.2,76.0,30.01,SE,141,4.3,6.9,79,0.00,CLR,,0.08,WeatherDisplay:10.37,2013-07-02 21:06:00,
2013-07-02 17:11:00,83.0,75.8,30.01,SE,145,1.1,2.3,79,0.00,CLR,,0.08,WeatherDisplay:10.37,2013-07-02 21:11:00,
2013-07-02 17:16:00,82.9,75.7,30.01,SSE,161,3.2,4.6,79,0.00,CLR,,0.08,WeatherDisplay:10.37,2013-07-02 21:16:00,
2013-07-02 17:21:00,82.8,75.6,30.01,SE,134,3.4,5.8,79,0.00,CLR,,0.08,WeatherDisplay:10.37,2013-07-02 21:21:00,
2013-07-02 17:26:00,82.7,75.1,30.01,South,170,0.6,2.3,78,0.00,CLR,,0.08,WeatherDisplay:10.37,2013-07-02 21:26:00,
2013-07-02 17:31:00,82.7,75.1,30.01,SSW,202,1.4,3.5,78,0.00,CLR,,0.08,WeatherDisplay:10.37,2013-07-02 21:31:00,
2013-07-02 17:36:00,82.7,75.1,30.01,South,181,2.4,3.5,78,0.00,CLR,,0.08,WeatherDisplay:10.37,2013-07-02 21:36:00,
2013-07-02 17:41:00,82.7,75.5,30.01,South,182,0.0,1.2,79,0.00,CLR,,0.08,WeatherDisplay:10.37,2013-07-02 21:41:00,
2013-07-02 17:46:00,82.6,74.7,30.02,SSW,198,2.5,3.5,77,0.00,CLR,,0.08,WeatherDisplay:10.37,2013-07-02 21:46:00,
2013-07-02 17:51:00,82.6,74.7,30.03,SSW,203,1.5,3.5,77,0.00,CLR,,0.08,WeatherDisplay:10.37,2013-07-02 21:51:00,
2013-07-02 17:56:00,82.5,74.9,30.03,SSW,202,0.0,0.0,78,0.00,CLR,,0.08,WeatherDisplay:10.37,2013-07-02 21:56:00,
2013-07-02 18:01:00,82.4,75.6,30.04,SSW,202,0.6,2.3,80,0.00,CLR,,0.08,WeatherDisplay:10.37,2013-07-02 22:01:00,
2013-07-02 18:06:00,82.3,75.1,30.04,SSW,204,1.6,2.3,79,0.00,CLR,,0.08,WeatherDisplay:10.37,2013-07-02 22:06:00,
2013-07-02 18:11:00,82.3,75.5,30.04,SSW,201,0.7,2.3,80,0.00,CLR,,0.08,WeatherDisplay:10.37,2013-07-02 22:11:00,
2013-07-02 18:16:00,82.1,75.3,30.05,SSW,192,2.0,2.3,80,0.00,CLR,,0.08,WeatherDisplay:10.37,2013-07-02 22:16:00,
2013-07-02 18:21:00,82.1,74.9,30.05,SSW,194,2.0,2.3,79,0.00,CLR,,0.08,WeatherDisplay:10.37,2013-07-02 22:21:00,
2013-07-02 18:26:00,82.0,75.2,30.06,SSW,208,1.5,3.0,80,0.00,CLR,,0.08,WeatherDisplay:10.37,2013-07-02 22:26:00,
2013-07-02 18:31:00,82.0,75.2,30.05,SSW,209,0.3,1.2,80,0.00,CLR,,0.08,WeatherDisplay:10.37,2013-07-02 22:31:00,
2013-07-02 18:36:00,82.0,76.0,30.06,SSW,209,0.0,0.0,82,0.00,CLR,,0.08,WeatherDisplay:10.37,2013-07-02 22:36:00,
2013-07-02 18:41:00,81.9,75.5,30.06,SSW,209,0.0,0.0,81,0.00,CLR,,0.08,WeatherDisplay:10.37,2013-07-02 22:41:00,
2013-07-02 18:46:00,81.8,75.8,30.06,SSW,209,0.0,0.0,82,0.00,CLR,,0.08,WeatherDisplay:10.37,2013-07-02 22:46:00,
2013-07-02 18:51:00,81.8,76.5,30.07,SSW,209,0.0,0.0,84,0.00,CLR,,0.08,WeatherDisplay:10.37,2013-07-02 22:51:00,
2013-07-02 18:56:00,81.6,76.6,30.06,SSW,209,0.0,0.0,85,0.00,CLR,,0.08,WeatherDisplay:10.37,2013-07-02 22:56:00,
2013-07-02 19:01:00,81.3,75.6,30.07,SSW,209,0.3,2.3,83,0.00,CLR,,0.08,WeatherDisplay:10.37,2013-07-02 23:01:00,
2013-07-02 19:06:00,81.3,76.0,30.06,SSW,209,0.0,0.0,84,0.01,RA,,0.09,WeatherDisplay:10.37,2013-07-02 23:06:00,
2013-07-02 19:11:00,81.3,76.7,30.06,SSW,209,0.0,1.0,86,0.01,RA,,0.09,WeatherDisplay:10.37,2013-07-02 23:11:00,
2013-07-02 19:16:00,80.9,76.3,30.07,SSW,209,0.0,0.0,86,0.01,CLR,,0.09,WeatherDisplay:10.37,2013-07-02 23:16:00,
2013-07-02 19:21:00,80.7,75.8,30.06,SSW,209,0.0,0.0,85,0.01,CLR,,0.09,WeatherDisplay:10.37,2013-07-02 23:21:00,
2013-07-02 19:26:00,80.6,76.0,30.06,SSW,209,0.0,0.0,86,0.01,CLR,,0.09,WeatherDisplay:10.37,2013-07-02 23:26:00,
2013-07-02 19:29:00,80.5,75.9,30.06,SSW,209,0.0,0.0,86,0.01,CLR,,0.09,WeatherDisplay:10.37,2013-07-02 23:29:00,
2013-07-02 19:34:00,80.4,75.8,30.06,SSW,209,0.0,1.2,86,0.01,CLR,,0.09,WeatherDisplay:10.37,2013-07-02 23:34:00,
2013-07-02 19:39:00,80.3,75.7,30.06,SSW,209,1.1,2.3,86,0.01,CLR,,0.09,WeatherDisplay:10.37,2013-07-02 23:39:00,
2013-07-02 19:44:00,80.3,75.7,30.06,SSW,209,0.0,0.0,86,0.01,CLR,,0.09,WeatherDisplay:10.37,2013-07-02 23:44:00,
2013-07-02 19:49:00,80.3,76.1,30.07,SSW,209,0.0,0.0,87,0.01,CLR,,0.09,WeatherDisplay:10.37,2013-07-02 23:49:00,
2013-07-02 19:54:00,80.2,76.0,30.07,SSW,209,0.1,1.2,87,0.01,CLR,,0.09,WeatherDisplay:10.37,2013-07-02 23:54:00,
2013-07-02 19:59:00,80.0,75.8,30.07,SSW,209,0.2,0.0,87,0.01,CLR,,0.09,WeatherDisplay:10.37,2013-07-02 23:59:00,
2013-07-02 20:01:00,80.0,75.8,30.07,SSW,209,0.0,0.0,87,0.01,CLR,,0.09,WeatherDisplay:10.37,2013-07-03 00:01:00,
2013-07-02 20:06:00,80.0,75.8,30.07,SSW,209,0.0,0.0,87,0.00,CLR,,0.09,WeatherDisplay:10.37,2013-07-03 00:06:00,
2013-07-02 20:11:00,80.0,75.8,30.08,SSW,209,0.0,0.0,87,0.00,CLR,,0.09,WeatherDisplay:10.37,2013-07-03 00:11:00,
2013-07-02 20:16:00,79.9,75.7,30.08,West,277,0.2,1.2,87,0.00,CLR,,0.09,WeatherDisplay:10.37,2013-07-03 00:16:00,
2013-07-02 20:21:00,79.7,75.1,30.08,West,281,5.9,8.1,86,0.00,CLR,,0.09,WeatherDisplay:10.37,2013-07-03 00:21:00,
2013-07-02 20:23:00,79.4,74.8,30.08,WSW,254,7.0,7.0,86,0.00,CLR,,0.09,WeatherDisplay:10.37,2013-07-03 00:23:00,
2013-07-02 20:24:00,79.3,74.7,30.08,NW,321,4.2,9.2,86,0.00,CLR,,0.09,WeatherDisplay:10.37,2013-07-03 00:24:00,
2013-07-02 20:28:00,78.8,74.3,30.08,NW,319,3.3,6.9,86,0.00,CLR,,0.09,WeatherDisplay:10.37,2013-07-03 00:28:00,
2013-07-02 20:33:00,78.3,74.1,30.08,NW,323,2.6,3.5,87,0.00,CLR,,0.09,WeatherDisplay:10.37,2013-07-03 00:33:00,
2013-07-02 20:38:00,78.1,73.9,30.08,NW,323,1.0,1.2,87,0.00,CLR,,0.09,WeatherDisplay:10.37,2013-07-03 00:38:00,
2013-07-02 20:43:00,77.9,74.1,30.08,NW,323,0.2,3.5,88,0.00,CLR,,0.09,WeatherDisplay:10.37,2013-07-03 00:43:00,
2013-07-02 20:48:00,77.8,74.0,30.08,NW,323,0.0,0.0,88,0.00,CLR,,0.09,WeatherDisplay:10.37,2013-07-03 00:48:00,
2013-07-02 20:53:00,77.6,74.1,30.08,NW,323,0.7,2.3,89,0.00,CLR,,0.09,WeatherDisplay:10.37,2013-07-03 00:53:00,
2013-07-02 20:58:00,77.6,74.1,30.08,NW,323,0.8,2.3,89,0.00,CLR,,0.09,WeatherDisplay:10.37,2013-07-03 00:58:00,
2013-07-02 21:00:00,77.6,74.1,30.08,NW,323,0.8,2.3,89,0.00,CLR,,0.09,WeatherDisplay:10.37,2013-07-03 01:00:00,
2013-07-02 21:03:00,77.5,74.0,30.08,NW,323,1.0,1.2,89,0.00,CLR,,0.09,WeatherDisplay:10.37,2013-07-03 01:03:00,
2013-07-02 21:08:00,77.5,74.0,30.08,NW,323,0.0,1.2,89,0.00,CLR,,0.09,WeatherDisplay:10.37,2013-07-03 01:08:00,
2013-07-02 21:09:00,77.5,74.0,30.08,NW,323,0.0,0.0,89,0.00,CLR,,0.09,WeatherDisplay:10.37,2013-07-03 01:09:00,
2013-07-02 21:14:00,77.5,74.0,30.09,NW,323,0.4,2.3,89,0.00,CLR,,0.09,WeatherDisplay:10.37,2013-07-03 01:14:00,
2013-07-02 21:19:00,77.5,74.0,30.09,NW,323,0.7,2.3,89,0.00,CLR,,0.09,WeatherDisplay:10.37,2013-07-03 01:19:00,
2013-07-02 21:24:00,77.4,73.9,30.09,NW,323,3.6,3.6,89,0.00,CLR,,0.09,WeatherDisplay:10.37,2013-07-03 01:24:00,
2013-07-02 21:26:00,77.4,73.9,30.10,NW,323,0.8,1.2,89,0.00,CLR,,0.09,WeatherDisplay:10.37,2013-07-03 01:26:00,
2013-07-02 21:31:00,77.4,73.9,30.10,NW,323,0.0,0.0,89,0.00,CLR,,0.09,WeatherDisplay:10.37,2013-07-03 01:31:00,
2013-07-02 21:36:00,77.3,73.8,30.10,NW,323,0.0,0.0,89,0.00,CLR,,0.09,WeatherDisplay:10.37,2013-07-03 01:36:00,
2013-07-02 21:41:00,77.3,73.8,30.10,NW,323,1.5,2.3,89,0.00,CLR,,0.09,WeatherDisplay:10.37,2013-07-03 01:41:00,
2013-07-02 21:46:00,77.3,74.1,30.10,NW,323,0.2,2.3,90,0.00,CLR,,0.09,WeatherDisplay:10.37,2013-07-03 01:46:00,
2013-07-02 21:50:00,77.3,74.5,30.10,NW,323,0.1,1.2,91,0.00,CLR,,0.09,WeatherDisplay:10.37,2013-07-03 01:50:00,
2013-07-02 21:52:00,77.3,74.5,30.10,NW,323,0.0,1.2,91,0.00,CLR,,0.09,WeatherDisplay:10.37,2013-07-03 01:52:00,
2013-07-02 21:58:00,77.2,74.0,30.10,NW,323,0.0,1.2,90,0.00,CLR,,0.09,WeatherDisplay:10.37,2013-07-03 01:58:00,
2013-07-02 22:03:00,77.2,74.0,30.10,NW,323,0.0,1.2,90,0.00,CLR,,0.09,WeatherDisplay:10.37,2013-07-03 02:03:00,
2013-07-02 22:09:00,77.1,74.3,30.10,NW,323,0.3,2.3,91,0.00,CLR,,0.09,WeatherDisplay:10.37,2013-07-03 02:09:00,
2013-07-02 22:14:00,77.2,74.4,30.10,NW,323,0.2,1.2,91,0.00,CLR,,0.09,WeatherDisplay:10.37,2013-07-03 02:14:00,
2013-07-02 22:19:00,77.3,74.5,30.10,NW,323,0.1,1.2,91,0.00,CLR,,0.09,WeatherDisplay:10.37,2013-07-03 02:19:00,
2013-07-02 22:24:00,77.3,74.5,30.10,NW,323,0.0,0.0,91,0.00,CLR,,0.09,WeatherDisplay:10.37,2013-07-03 02:24:00,
2013-07-02 22:29:00,77.3,74.5,30.10,NW,323,0.0,0.0,91,0.00,CLR,,0.09,WeatherDisplay:10.37,2013-07-03 02:29:00,
2013-07-02 22:32:00,77.2,74.4,30.10,NW,323,0.4,1.2,91,0.00,CLR,,0.09,WeatherDisplay:10.37,2013-07-03 02:32:00,
2013-07-02 22:37:00,77.2,74.4,30.10,NW,323,0.8,1.2,91,0.00,CLR,,0.09,WeatherDisplay:10.37,2013-07-03 02:37:00,
2013-07-02 22:42:00,77.2,74.4,30.10,NW,323,0.0,0.0,91,0.00,CLR,,0.09,WeatherDisplay:10.37,2013-07-03 02:42:00,
2013-07-02 22:47:00,77.2,74.4,30.10,NW,323,0.8,1.2,91,0.00,CLR,,0.09,WeatherDisplay:10.37,2013-07-03 02:47:00,
2013-07-02 22:52:00,77.2,74.4,30.10,NW,323,0.0,0.0,91,0.00,CLR,,0.09,WeatherDisplay:10.37,2013-07-03 02:52:00,
2013-07-02 22:57:00,77.2,74.4,30.10,NW,323,0.0,1.2,91,0.00,CLR,,0.09,WeatherDisplay:10.37,2013-07-03 02:57:00,
2013-07-02 23:02:00,77.2,74.4,30.10,NW,323,0.0,1.2,91,0.00,CLR,,0.09,WeatherDisplay:10.37,2013-07-03 03:02:00,
2013-07-02 23:07:00,77.2,74.4,30.10,NW,323,0.2,1.2,91,0.00,CLR,,0.09,WeatherDisplay:10.37,2013-07-03 03:07:00,
2013-07-02 23:12:00,77.2,74.4,30.10,NW,323,0.6,2.3,91,0.00,CLR,,0.09,WeatherDisplay:10.37,2013-07-03 03:12:00,
2013-07-02 23:18:00,77.3,74.8,30.10,NW,323,0.2,0.0,92,0.00,CLR,,0.09,WeatherDisplay:10.37,2013-07-03 03:18:00,
2013-07-02 23:21:00,77.4,74.9,30.11,NW,323,0.0,0.0,92,0.00,CLR,,0.09,WeatherDisplay:10.37,2013-07-03 03:21:00,
2013-07-02 23:26:00,77.3,74.8,30.11,NW,323,0.0,0.0,92,0.00,CLR,,0.09,WeatherDisplay:10.37,2013-07-03 03:26:00,
2013-07-02 23:32:00,77.3,74.8,30.10,NW,323,0.0,0.0,92,0.00,CLR,,0.09,WeatherDisplay:10.37,2013-07-03 03:32:00,
2013-07-02 23:35:00,77.3,74.8,30.10,NW,323,0.0,0.0,92,0.00,CLR,,0.09,WeatherDisplay:10.37,2013-07-03 03:35:00,
2013-07-02 23:39:00,77.3,75.1,30.10,NW,323,0.0,0.0,93,0.00,CLR,,0.09,WeatherDisplay:10.37,2013-07-03 03:39:00,
2013-07-02 23:44:00,77.2,75.0,30.10,NW,323,0.0,0.0,93,0.00,CLR,,0.09,WeatherDisplay:10.37,2013-07-03 03:44:00,
2013-07-02 23:49:00,77.1,74.9,30.10,NW,323,0.0,0.0,93,0.00,CLR,,0.09,WeatherDisplay:10.37,2013-07-03 03:49:00,
2013-07-02 23:54:00,77.0,74.8,30.10,NW,323,0.0,0.0,93,0.00,CLR,,0.09,WeatherDisplay:10.37,2013-07-03 03:54:00,
2013-07-02 23:59:00,76.9,74.7,30.09,NW,323,0.0,0.0,93,0.00,CLR,,0.09,WeatherDisplay:10.37,2013-07-03 03:59:00,